Regional Weather Roundup
Issued by NWS Grand Forks, ND

Home | Current Version | Previous Version | Text Only | Print | Product List | Glossary Off
Versions: 1 2 3 4 5 6 7 8 9 10 11 12 13 14 15 16 17 18 19 20 21 22 23 24 25 26 27 28 29 30 31 32 33 34 35 36 37 38 39 40 41 42 43 44 45 46 47 48 49 50

886
ASUS43 KFGF 101510
RWRFGF
PRAIRIE TO PINES  WEATHER ROUNDUP
NATIONAL WEATHER SERVICE EASTERN NORTH DAKOTA/GRAND FORKS ND
900 AM CST WED FEB 10 2016

 **SATELLITE DATA USED TO AUGMENT SKY COVER AT AUTOMATED STATIONS**
 *****  WEATHER ACROSS EASTERN NORTH DAKOTA  *****

CITY           SKY/WX    TMP DP  RH WIND       PRES   REMARKS
GRAND FORKS    FLURRIES   6  -1  73 E9        30.12R WCI  -8
GRAND FRKS AFB CLOUDY     5  -1  76 E8        30.11R WCI  -9
DEVILS LAKE    NOT AVBL
FARGO          LGT SNOW   8   2  76 E9        30.09F WCI  -5
WAHPETON ARPT  CLOUDY     9   3  78 SE7       30.09S WCI  -3
$$

 ***** WEATHER ACROSS CENTRAL AND WESTERN NORTH DAKOTA  *****

CITY           SKY/WX    TMP DP  RH WIND       PRES   REMARKS
BISMARCK       CLOUDY    22  17  81 E7        29.89R WCI  13
MINOT          CLOUDY    17   9  70 E12       29.92R WCI   4
JAMESTOWN      LGT SNOW   7   2  80 SE12      29.98S WCI  -8
MINOT AFB      CLOUDY    14  10  85 E10       29.93R WCI   1
GARRISON         N/A     19  15  84 E14       29.88R WCI   6
WILLISTON      CLOUDY    31  26  82 N14       29.91R WCI  21
DICKINSON      CLEAR     33  26  75 NW13      29.83R WCI  24
HETTINGER      CLEAR     32  26  78 W8        29.86R WCI  25
$$

 *****  OTHER AIRPORT OBSERVATIONS IN OUR AREA  *****

CITY           SKY/WX    TMP DP  RH WIND       PRES   REMARKS
WALHALLA       FLURRIES   1   0  92 SE8       30.13S WCI -12
GRAFTON AIRPOR CLOUDY     3  -2  78 E9        30.15S WCI -11
VALLEY CITY AR CLOUDY     5   1  85 E13       30.03S WCI -12
CANDO          NOT AVBL
CAVALIER APRT  FAIR       3   0  85 SE8       30.13F WCI -10
GWINNER        CLOUDY    10   9  92 E15       30.02S VSB 3/4 WCI  -6
SHEYENNE NWR     N/A      7   2  82 SE9       29.95  WCI  -7
ROLLA          CLOUDY     3   0  85 SE10      29.99R WCI -12
 ***** THE ABOVE OBSERVATIONS ARE NON NWS ARE NOT QUALITY
       CONTROLLED AND MAY MIS-REPORT RAIN FOR SNOW...
$$

  *****  WEATHER ACROSS NORTHERN MINNESOTA  *****

CITY           SKY/WX    TMP DP  RH WIND       PRES   REMARKS
FLAG ISLAND    MOSUNNY  -17 -20  83 CALM      30.16S
WARROAD        MOSUNNY  -11 -17  77 NE3       30.15S
ROSEAU         CLOUDY   -11 -17  77 E3        30.16S
HALLOCK        CLOUDY     1  -6  71 E7        30.15S WCI -11
THF RVR FALLS  CLOUDY     0  -6  78 E9        30.12S WCI -16
BAUDETTE       MOSUNNY  -21 -23  90 CALM      30.14R
WASKISH        CLOUDY   -11 -15  84 E5        30.13S WCI -23
CROOKSTON      CLOUDY     3  -2  78 SE9       30.14R WCI -11
STEPHEN NDAWN    N/A      1  -6  71 E8          N/A  WCI -12
GREENBUSH NDAW   N/A     -4  -8  84 E7          N/A  WCI -18
$$
  *****  WEATHER ACROSS CENTRAL AND WEST MINNESOTA  *****

CITY           SKY/WX    TMP DP  RH WIND       PRES   REMARKS
FOSSTON          N/A      0  -6  78 E5        30.10R WCI -10
BEMIDJI        CLOUDY    -6 -10  81 E5        30.10R WCI -17
PARK RAPIDS    CLOUDY    -1  -8  72 E3        30.07S
ELBOW LAKE     NOT AVBL
WADENA         CLOUDY     0  -6  78 E5        30.08S WCI -10
DETROIT LAKES  CLOUDY     3   0  85 SE6       30.07F WCI  -8
MOORHEAD       MIX PCPN   7   1  78 SE6       30.10S WCI  -3
FERGUS FALLS   LGT SNOW   5   0  78 E7        30.11F WCI  -7
MORRIS MN      LGT SNOW   7   1  78 E13       30.06F WCI  -9
STAPLES        CLOUDY    -2  -8  78 CALM      30.10R
$$
  *****  WEATHER ELSEWHERE ACROSS MINNESOTA  *****

CITY           SKY/WX    TMP DP  RH WIND       PRES   REMARKS
DULUTH         CLOUDY    -7 -13  75 N7        30.05R WCI -21
INTRNTL FALLS  CLOUDY   -13 -18  78 NE3       30.14R
ELY            CLOUDY   -13 -18  77 NE3       30.08S
CLOQUET        CLOUDY    -9 -15  77 CALM      30.08R
WHEATON        LGT SNOW   9   5  85 E13       30.09S WCI  -7
BRAINERD       PTSUNNY   -3  -9  75 NE7       30.11R WCI -16
HIBBING        CLOUDY   -15 -18  86 NW5       30.08R WCI -27
ALEXANDRIA     CLOUDY     3  -5  69 E9        30.06F WCI -12
SAINT CLOUD    CLOUDY     2  -5  72 CALM      30.11F
MINNEAPOLIS    CLOUDY     4  -5  66 CALM      30.14R
$$

  *****  WEATHER ACROSS SOUTH DAKOTA  *****

CITY           SKY/WX    TMP DP  RH WIND       PRES   REMARKS
SIOUX FALLS    FLURRIES  17  14  88 E10       29.97S WCI   5
BROOKINGS      LGT SNOW  12   9  87 E12       29.96F FOG     WCI  -2
WATERTOWN      LGT SNOW  11   5  77 SE9       29.96R WCI  -2
HURON          CLOUDY    22  17  81 SE10      29.92F WCI  11
SISSETON         N/A      8   4  83 SE13      30.04S WCI  -8
ABERDEEN       CLOUDY    17  12  80 E10       29.95F WCI   5
MITCHELL       CLOUDY    23  19  85 SE12      29.94S WCI  12
PIERRE         SUNNY     26  24  92 S5        29.85S WCI  20
MOBRIDGE       CLOUDY    23  19  85 SE10      29.83F WCI  12
RAPID CITY     CLEAR     44  26  49 NW9       29.89S
$$

  *****  SOME WEATHER IN NEARBY STATES *****

CITY           SKY/WX    TMP DP  RH WIND       PRES   REMARKS
GLASGOW MT     CLOUDY    32  26  78 NW10      29.98R WCI  24
GREAT FALLS MT CLOUDY    42  25  50 SW12      30.05S
CHEYENNE WY    CLOUDY    43  14  31 NW14G23   30.17R
SCOTTSBLUFF NE CLEAR     39  25  57 NW15      30.04S
OMAHA NE       CLOUDY    28  19  69 S14       30.00S WCI  17
DES MOINES IA  LGT SNOW  16  11  80 VRB5      30.09F VSB 3/4 WCI   9
DAVENPORT IA   MOSUNNY   10  -1  61 NW9       30.11S WCI  -3
CHICAGO IL     MOSUNNY   12   2  64 NW15      30.03R WCI  -4
EAU CLAIRE WI  CLOUDY     0  -7  72 NW6       30.09R WCI -12
LA CROSSE WI   CLOUDY     3  -6  66 NW6       30.12R WCI  -8
$$

  *****  SOME NATIONAL WEATHER *****

CITY           SKY/WX    TMP DP  RH WIND       PRES   REMARKS
LA GUARDIA NY  CLOUDY    36  28  73 W13G22    29.63R
RALEIGH NC     SUNNY     32  14  47 NW9       29.93S WCI  24
ATLANTA GA     MOSUNNY   27  11  51 NW16G29   30.13S WCI  15
NEW ORLEANS LA SUNNY     48  24  39 NE7       30.37R
OKLAHOMA CITY  SUNNY     40  25  55 SW16      30.22S
ALBUQUERQUE NM CLOUDY    34  19  54 NW8       30.44R
SALT LAKE CITY SNOW      28  27  96 SE6       30.46F VSB 1/4 WCI  22
LOS ANGELES CA PTCLDY    62  30  29 E5        30.12S
BOISE ID       FOG       27  27 100 NW5       30.44R VSB 1/4 WCI  22
SEATTLE WA     MOCLDY    50  38  63 SE3       30.09R
$$

*** WEATHER ACROSS MANITOBA...SASKATCHEWAN AND ONTARIO ***
                ***ONTARIO***

CITY           SKY/WX    TMP DP  RH WIND       PRES   REMARKS
GERALDTON      MOSUNNY  -17 -22  76 NW9       30.02R WCI -36
THUNDER BAY    MOSUNNY  -13 -20  70 W9        30.16S WCI -31
SIOUX LOOKOUT  MOSUNNY  -22 -27  76 VRB2      30.14R
TORONTO        FLURRIES  25  18  74 NW17      29.62R WCI  11
BIG TROUT LK   PTSUNNY  -26 -31  75 NW7       30.14F WCI -44
PICKLE LAKE    FLURRIES -24 -31  69 W5        30.10R WCI -38
DRYDEN         SUNNY    -20 -24  83 NE5       30.12S WCI -33
KENORA         PTSUNNY  -15 -20  76 E5        30.14R WCI -27
$$
                *** MANITOBA***

CITY           SKY/WX    TMP DP  RH WIND       PRES   REMARKS
BRANDON        FLURRIES   3  -2  78 E17       30.07  WCI -17
DAUPHIN        FLURRIES   3   0  85 E12       30.13R WCI -13
ISLAND LAKE    CLEAR    -31 -36  75 CALM      30.23S
PILOT MOUND      N/A      1  -2  85 E12         N/A  WCI -15
THE PAS        FLURRIES  -4 -11  71 SE3       30.19R
THOMPSON       LGT SNOW -11 -17  77 NE2       30.25R
WINNIPEG       CLOUDY    -2  -9  71 E6        30.19S WCI -14
LYNN LAKE      FLURRIES  -6 -11  77 N5        30.21R WCI -17
CHURCHILL      CRYSTALS -22 -27  76 NW9       30.25F WCI -42
GILLAM         PTCLDY   -29 -36  68 W9        30.26R WCI -51
$$
                ***SASKATCHEWAN***

CITY           SKY/WX    TMP DP  RH WIND       PRES   REMARKS
ESTEVAN        CLOUDY    14  10  85 E9        29.95R WCI   2
KINDERSLEY     CLOUDY    30  30 100 NW6       30.06R WCI  24
LLOYDMINSTER   CLOUDY    28  25  86 N10       30.09R WCI  19
PRINCE ALBERT  CLOUDY    12   9  85 N3        30.11R
REGINA         CLOUDY    25  23  93 NW10      29.97R WCI  15
YORKTON        FLURRIES   9   5  85 E6        30.03R WCI  -1
N. BATTLEFORD  CLOUDY    28  28 100 NE10      30.09R WCI  19
LA RONGE       MOCLDY     5   1  85 N10       30.19R WCI -10
SASKATOON      CLOUDY    23  19  86 N18G24    30.07R WCI   9
SWIFT CURRENT  FOG       30  30 100 N9        30.01R VSB 1   WCI  22
$$
NOTE: THESE ARE AUTOMATED STATIONS WITH LIMITED QUALITY CONTROL
      "FAIR" INDICATES FEW OR NO CLOUDS BELOW 12,000 FEET WITH NO
      SIGNIFICANT WEATHER AND/OR OBSTRUCTIONS TO VISIBILITY.
      SKY/WX - SKY CONDITION AND SIGNIFICANT WEATHER.
      TMP - AIR TEMPERATURE.    DP   - DEWPOINT TEMPERATURE.
      RH  - RELATIVE HUMIDITY.  PRES - PRESSURE.
      HX  - HEAT INDEX.         WCI  - WIND CHILL INDEX.
$




USA.gov is the U.S. government's official web portal to all federal, state and local government web resources and services.